Regional Weather Roundup
Issued by NWS Sioux Falls, SD

Home | Current Version | Previous Version | Text Only | Print | Product List | Glossary On
Versions: 1 2 3 4 5 6 7 8 9 10 11 12 13 14 15 16 17 18 19 20 21 22 23 24 25 26 27 28 29 30 31 32 33 34 35 36 37 38 39 40 41 42 43 44 45 46 47 48 49 50
000
ASUS43 KFSD 310402
RWRFSD

WEATHER ROUNDUP FOR SE SOUTH DAKOTA/SW MINNESOTA/NW IOWA
NATIONAL WEATHER SERVICE SIOUX FALLS SD
1100 PM CDT MON MAY 30 2016

NOTE: "FAIR" INDICATES FEW OR NO CLOUDS BELOW 12,000 FEET WITH NO
SIGNIFICANT WEATHER AND OR OBSTRUCTIONS TO VISIBILITY.


SDZ038>040-050-052>070-310500-
SOUTHEAST SOUTH DAKOTA

CITY           SKY/WX    TMP DP  RH WIND       PRES   REMARKS
BROOKINGS      CLOUDY    69  57  65 SE12      29.75F
CHAMBERLAIN    NOT AVBL
HURON          CLOUDY    64  58  80 W18G25    29.78R
MADISON        MOCLDY    70  61  73 SE9       29.77F
MITCHELL       CLOUDY    71  58  63 NW20G25   29.78R
SIOUX FALLS    CLOUDY    71  59  65 S22G29    29.78F
WINNER         LGT RAIN  59  55  87 NW14      29.91R
YANKTON        CLOUDY    73  57  56 S14G22    29.76F THUNDER
$$

MNZ071-072-080-081-089-090-097-098-310500-
SOUTHWEST MINNESOTA

CITY           SKY/WX    TMP DP  RH WIND       PRES   REMARKS
FAIRMONT       MOCLDY    66  50  55 SE20G25   29.90R
JACKSON        PTCLDY    68  55  64 SE16G25   29.89S
LUVERNE        CLOUDY    70  54  56 S21G28    29.82F
MARSHALL       LGT RAIN  75  58  55 SE18G25   29.79F
MONTEVIDEO     PTCLDY    72  59  64 S14G20    29.79F
PIPESTONE      CLOUDY    72  57  60 S20G25    29.82S
REDWOOD FALLS  PTCLDY    73  56  54 SE20G26   29.81F
TRACY          LGT RAIN  74  59  57 S16G22    29.82S
WINDOM         MOCLDY    72  57  60 SE17G25   29.85S
WORTHINGTON    TSTM      69  59  70 S18G29    29.86R
$$

IAZ001>003-012>014-020>022-031-032-NEZ013-014-SDZ071-310500-
NORTHWEST IOWA

CITY           SKY/WX    TMP DP  RH WIND       PRES   REMARKS
ESTHERVILLE    MOCLDY    65  58  78 SE22      29.90R
SIOUX CITY     MOCLDY    71  60  68 SE12      29.86S
SPENCER        CLOUDY    70  57  63 SE14      29.89R
STORM LAKE     CLOUDY    66  57  72 SW17      29.92R
$$

ABBREVIATIONS USED IN REMARKS
   TC - TEMPERATURE IN CELSIUS
  WCI - WIND CHILL INDEX
   HX - HEAT INDEX
  VSB - VISIBILITY





USA.gov is the U.S. government's official web portal to all federal, state and local government web resources and services.